Houston Hull, TX

9:00 PM CST on November 11, 2019 (GMT -0600)
Sugar Land Municipal-Hull

Weather History for KSGR - September, 2019

Change the Weather History Date:

Tuesday, September 17, 2019

  Actual Average Record
Temperature  
Mean Temperature 78 °F -  
Max Temperature 81 °F 89 °F 98 °F (1997)
Min Temperature 75 °F 69 °F 55 °F (1961)
Cooling Degree Days 13    
Growing Degree Days 28 (Base 50)    
Moisture  
Dew Point 76 °F    
Average Humidity 94    
Maximum Humidity 100    
Minimum Humidity 84    
Precipitation  
Precipitation 1.59 in - - ()
Sea Level Pressure  
Sea Level Pressure 29.85 in    
Wind  
Wind Speed 9 mph (NE)    
Max Wind Speed 15 mph    
Max Gust Speed 24 mph    
Visibility 8 miles    
Events Rain    
Averages and records for this station are not official NWS values.
T = Trace of Precipitation, MM = Missing Value Source: NWS Daily Summary

Daily Weather History Graph

Daily Weather History Graph

Search for Another Location

Airport or City:

Astronomy

Sep. 17, 2019 Rise Set
Actual Time 7:08 AM CDT 7:25 PM CDT
Civil Twilight 6:44 AM CDT 7:49 PM CDT
Nautical Twilight 6:16 AM CDT 8:17 PM CDT
Astronomical Twilight 5:48 AM CDT 8:45 PM CDT
Moon 9:43 PM CDT (9/17) 10:02 AM CDT (9/17)
Length of Visible Light 13h 05m
Length of Day
12h 17m
Waning Gibbous, 89% of the Moon is Illuminated
Sep 17
Waning Gibbous
Sep 21
Last Quarter
Sep 28
New
Oct 5
First Quarter
Oct 13
Full

Hourly Weather History & Observations

Time (CDT) Temp. Heat Index Dew Point Humidity Pressure Visibility Wind Dir Wind Speed Gust Speed Precip Events Conditions
12:53 AM 79.0 °F - 73.9 °F 84% 29.91 in 10.0 mi ENE 6.9 mph - N/A   Mostly Cloudy
1:53 AM 78.1 °F - 75.0 °F 90% 29.90 in 10.0 mi NE 4.6 mph - N/A   Clear
2:53 AM 78.1 °F - 75.0 °F 90% 29.89 in 10.0 mi NNE 6.9 mph - N/A   Partly Cloudy
3:53 AM 77.0 °F - 75.0 °F 94% 29.88 in 10.0 mi NNE 8.1 mph - N/A   Clear
4:53 AM 77.0 °F - 75.0 °F 94% 29.88 in 10.0 mi NNE 10.4 mph - N/A   Scattered Clouds
5:11 AM 77.0 °F - 75.0 °F 94% 29.87 in 10.0 mi NNE 9.2 mph - N/A   Mostly Cloudy
5:30 AM 77.0 °F - 75.0 °F 94% 29.88 in 10.0 mi NNE 8.1 mph - N/A   Overcast
5:53 AM 78.1 °F - 75.0 °F 90% 29.88 in 10.0 mi NNE 6.9 mph - N/A   Overcast
6:53 AM 77.0 °F - 75.9 °F 96% 29.88 in 10.0 mi NE 6.9 mph - 0.00 in   Mostly Cloudy
7:38 AM 78.1 °F - 75.9 °F 93% 29.89 in 10.0 mi NE 6.9 mph - N/A   Overcast
7:53 AM 78.1 °F - 75.9 °F 93% 29.89 in 10.0 mi NE 8.1 mph - 0.00 in Rain Light Rain
8:38 AM 78.1 °F - 75.9 °F 93% 29.89 in 8.0 mi ENE 11.5 mph - 0.02 in Rain Rain
8:53 AM 77.0 °F - 75.9 °F 96% 29.90 in 6.0 mi ENE 6.9 mph - 0.05 in Rain Rain
9:06 AM 77.0 °F - 75.9 °F 96% 29.89 in 10.0 mi East 6.9 mph - 0.01 in Rain Light Rain
9:24 AM 77.0 °F - 75.9 °F 96% 29.90 in 6.0 mi East 9.2 mph - 0.05 in Rain Heavy Rain
9:53 AM 77.0 °F - 75.9 °F 96% 29.91 in 10.0 mi East 6.9 mph - 0.10 in Rain Light Rain
10:00 AM 77.0 °F - 75.9 °F 96% 29.91 in 10.0 mi East 6.9 mph - 0.00 in Rain Light Rain
10:21 AM 77.0 °F - 75.9 °F 96% 29.91 in 10.0 mi East 9.2 mph - 0.01 in Rain Light Rain
10:53 AM 77.0 °F - 75.9 °F 96% 29.92 in 10.0 mi East 8.1 mph - 0.01 in Rain Light Rain
11:53 AM 78.1 °F - 75.9 °F 93% 29.92 in 10.0 mi ENE 8.1 mph - 0.01 in   Overcast
12:53 PM 80.1 °F 85.8 °F 77.0 °F 90% 29.90 in 10.0 mi NE 9.2 mph - 0.01 in Rain Light Rain
1:00 PM 80.1 °F 85.8 °F 77.0 °F 90% 29.89 in 10.0 mi NE 9.2 mph - 0.00 in   Mostly Cloudy
1:07 PM 80.1 °F 85.8 °F 77.0 °F 90% 29.89 in 10.0 mi NNE 11.5 mph - 0.00 in   Mostly Cloudy
1:53 PM 80.1 °F 85.8 °F 77.0 °F 90% 29.87 in 10.0 mi NNE 11.5 mph - 0.00 in   Mostly Cloudy
2:00 PM 79.0 °F - 77.0 °F 94% 29.86 in 6.0 mi NNE 11.5 mph - 0.01 in Rain Rain
2:53 PM 81.0 °F 87.3 °F 75.9 °F 85% 29.83 in 10.0 mi ENE 15.0 mph 21.9 mph 0.02 in   Overcast
3:27 PM 79.0 °F - 77.0 °F 94% 29.81 in 1.8 mi ENE 15.0 mph 24.2 mph 0.05 in Rain Heavy Rain
3:53 PM 78.1 °F - 77.0 °F 96% 29.80 in 4.0 mi NNE 11.5 mph - 0.22 in Rain Light Rain
3:56 PM 78.1 °F - 77.0 °F 96% 29.80 in 7.0 mi East 8.1 mph - 0.00 in Rain Light Rain
4:12 PM 78.1 °F - 75.9 °F 93% 29.80 in 2.5 mi NE 5.8 mph - 0.03 in Rain Heavy Rain
4:19 PM 77.0 °F - 75.9 °F 96% 29.79 in 0.8 mi ENE 8.1 mph - 0.21 in Rain Heavy Rain
4:29 PM 77.0 °F - 75.9 °F 96% 29.78 in 1.8 mi NE 6.9 mph - 0.33 in Rain Heavy Rain
4:53 PM 77.0 °F - 75.9 °F 96% 29.78 in 8.0 mi NE 12.7 mph 20.7 mph 0.39 in Rain Light Rain
5:53 PM 78.1 °F - 75.9 °F 93% 29.77 in 10.0 mi NNE 11.5 mph - 0.02 in Rain Light Rain
6:53 PM 77.0 °F - 75.9 °F 96% 29.76 in 4.0 mi North 10.4 mph 19.6 mph 0.02 in Rain Light Rain
7:53 PM 77.0 °F - 75.9 °F 96% 29.75 in 8.0 mi NW 6.9 mph - 0.01 in Rain Light Rain
8:53 PM 75.9 °F - 75.0 °F 97% 29.78 in 4.0 mi WNW 8.1 mph - 0.05 in Rain Heavy Rain
9:53 PM 75.9 °F - 75.0 °F 97% 29.80 in 3.0 mi WSW 11.5 mph - 0.15 in Rain Heavy Rain
10:02 PM 75.9 °F - 75.0 °F 97% 29.79 in 2.0 mi SW 13.8 mph - 0.10 in Rain Heavy Rain
10:13 PM 75.9 °F - 75.0 °F 97% 29.80 in 2.0 mi SW 12.7 mph - 0.22 in Rain Heavy Rain
10:23 PM 75.9 °F - 75.9 °F 100% 29.80 in 3.0 mi SW 13.8 mph - 0.33 in Rain Heavy Rain
10:53 PM 75.9 °F - 75.9 °F 100% 29.81 in 7.0 mi SSW 15.0 mph - 0.45 in Rain Rain
11:53 PM 75.9 °F - 75.9 °F 100% 29.83 in 10.0 mi SSW 11.5 mph - 0.08 in Rain Light Rain